Regional Weather Roundup
Issued by NWS

Home | Current Version | Previous Version | Graphics & Text | Print | Product List | Glossary On
Versions: 1 2 3 4 5 6 7 8 9 10 11 12 13 14 15 16 17 18 19 20 21 22 23 24 25 26 27 28 29 30 31 32 33 34 35 36 37 38 39 40 41 42 43 44 45 46 47 48 49 50
000
ASUS43 KMKX 220920
RWRWI

WISCONSIN REGIONAL WEATHER ROUNDUP
NATIONAL WEATHER SERVICE MILWAUKEE/SULLIVAN WI
300 AM CST WED NOV 22 2017

NOTE: "FAIR" INDICATES FEW OR NO CLOUDS BELOW 12,000 FEET WITH NO
SIGNIFICANT WEATHER AND/OR OBSTRUCTIONS TO VISIBILITY.

WIZ001-002-006>008-014>016-023>028-221000-
NORTHWEST WISCONSIN

CITY           SKY/WX    TMP DP  RH WIND       PRES   REMARKS
SUPERIOR ARPT  CLEAR     16  10  77 W3        30.32S
ASHLAND        CLOUDY    19  11  70 SW8       30.30S WCI   9
HAYWARD        CLOUDY    17   9  70 CALM      30.29S
SIREN          CLOUDY    10   7  88 CALM      30.34R
CUMBERLAND     FLURRIES  12   9  85 W5        30.30F WCI   4
RICE LAKE      CLOUDY    13   9  84 W3        30.33F
CHETEK           N/A     13   9  82 W5        30.32F WCI   6
LADYSMITH      CLOUDY    17  10  76 NW6       30.31S WCI   8
EAU CLAIRE     CLOUDY    14   8  77 NW5       30.33R WCI   6
MENOMONIE      CLOUDY    15  10  81 W5        30.34F WCI   7
NEW RICHMOND   CLOUDY    13   9  83 W3        30.34F
OSCEOLA        CLOUDY    15  11  83 W3        30.39R
$$

WIZ003>005-009-010-017-018-221000-
NORTH CENTRAL WISCONSIN

CITY           SKY/WX    TMP DP  RH WIND       PRES   REMARKS
MANITOWISH WTR FLURRIES  17  12  81 W7        30.22S WCI   7
ARBOR VITAE    FLURRIES  19  13  77 NW7       30.21S WCI  10
WOODRUFF       FLURRIES  19  13  77 NW7       30.21S WCI  10
RHINELANDER    CLOUDY    18  12  77 W7        30.22S WCI   9
EAGLE RIVER    FLURRIES  18  12  79 W8        30.19F WCI   7
LAND O LAKES   FLURRIES  18  15  85 W7        30.21R WCI   9
PHILLIPS       CLOUDY    16   9  74 W3        30.25F
TOMAHAWK       CLOUDY    17  10  74 W8        30.25S WCI   7
MEDFORD        FLURRIES  17  10  73 N7        30.26R WCI   7
MERRILL        CLOUDY    18  10  71 NW3       30.26S
$$

WIZ029-030-035-036-043>047-221000-
CENTRAL WISCONSIN

CITY           SKY/WX    TMP DP  RH WIND       PRES   REMARKS
WAUSAU         CLOUDY    19  10  68 NW7       30.26R WCI  10
MOSINEE        CLOUDY    19  12  73 NW7       30.27R WCI  10
MARSHFIELD     CLOUDY    18  11  74 NW9       30.26R WCI   7
STEVENS POINT  CLOUDY    18   9  69 N6        30.28R WCI  10
WAUPACA        MOCLDY    21  13  71 W3        30.29R
WAUTOMA        CLEAR     17  11  77 NW8       30.30R WCI   7
WISC RAPIDS    CLEAR     16   9  74 N6        30.30R WCI   7
CAMP DOUGLAS   CLEAR     15  10  80 NW6       30.31R WCI   6
$$

WIZ011>013-019>022-031-037>040-048>050-221000-
NORTHEAST WISCONSIN

CITY           SKY/WX    TMP DP  RH WIND       PRES   REMARKS
ANTIGO         FLURRIES  18  13  79 NW10      30.23R WCI   7
SHAWANO        CLOUDY    25  14  63 NW3       30.27R
OCONTO         CLOUDY    25  12  58 NW7       30.26R WCI  17
STURGEON BAY   FLURRIES  25  13  60 NW13      30.24R WCI  14
GREEN BAY      CLOUDY    23  15  71 W7        30.26R WCI  15
MANITOWOC      CLOUDY    25  14  63 NW9       30.26R WCI  15
APPLETON       CLEAR     16   9  73 W8        30.25R WCI   5
CLINTONVILLE   CLOUDY    25  10  54 N9        30.27R WCI  15
OSHKOSH        CLEAR     18  11  74 W7        30.26R WCI   9
$$

WIZ032>034-041-042-053>061-221000-
SOUTHWEST WISCONSIN

CITY           SKY/WX    TMP DP  RH WIND       PRES   REMARKS
LA CROSSE      CLEAR     20  12  71 N10       30.35R WCI   9
SPARTA         CLEAR     18  12  77 NW6       30.34R WCI  10
VIROQUA        CLEAR     18  14  83 NW8       30.29R WCI   8
BOSCOBEL       CLEAR     20  12  71 CALM      30.34R
PRAIRIE DU CHI CLEAR     20  12  69 NW5       30.34S WCI  14
PLATTEVILLE    CLEAR     18  15  86 W6        30.31R WCI  10
$$

WIZ056-057-062-063-064-067-068-221000-
SOUTH CENTRAL WISCONSIN

CITY           SKY/WX    TMP DP  RH WIND       PRES   REMARKS
REEDSBURG      CLEAR     19  11  70 NW3       30.29S
BARABOO/DELLS  CLEAR     19  11  69 NW5       30.29R WCI  13
LONE ROCK      CLEAR     18  12  77 W6        30.32R WCI  10
MINERAL POINT  CLEAR     21  16  79 CALM      30.28S
MADISON        CLEAR     20  12  71 NW5       30.28R WCI  13
MIDDLETON      CLEAR     23  15  71 NW10      30.28S WCI  12
WATERTOWN      CLEAR     19  14  80 NW3       30.27R
MONROE         CLEAR     19  14  79 NW8       30.27S WCI   9
JANESVILLE     CLEAR     19  14  79 NW6       30.28S WCI  11
$$

WIZ051-052-058>065-066-070>072-221000-
SOUTHEAST WISCONSIN

CITY           SKY/WX    TMP DP  RH WIND       PRES   REMARKS
MILWAUKEE      CLEAR     24  13  62 NW7       30.27R WCI  16
WAUKESHA       CLEAR     19  14  79 NW6       30.27S WCI  11
MILWAUKEE/TIMM CLEAR     19  12  73 NW5       30.27S WCI  13
RACINE         CLEAR     22  13  68 NW6       30.28R WCI  14
BURLINGTON     CLEAR     22  19  88 CALM      30.27R
KENOSHA        CLEAR     20  13  74 W3        30.27R
FOND DU LAC    CLEAR     18  10  71 NW8       30.27R WCI   8
SHEBOYGAN      MOCLDY    22  14  71 NW6       30.25R WCI  14
WEST BEND      CLEAR     19  12  73 CALM      30.25S
JUNEAU         CLEAR     19  13  75 NW3       30.28R
$$

LSZ147-162-221000-
LAKE SUPERIOR

STATION/POSITION TIME  TEMP    WIND        PRES    WAVE
                       AIR SEA DIR/SP/G            HT/PER
                 (UTC) (F)     (DEG/KT/KT) (MB)    (FT/S)
DEVILS ISLAND    0900   22     310/  7/  9 1026.1F
SAXON HARBOR     0830   22     270/  8/ 11 1025.4R
$$

LMZ867-665-643>646-221000-
LAKE MICHIGAN

STATION/POSITION TIME  TEMP    WIND        PRES    WAVE
                       AIR SEA DIR/SP/G            HT/PER
                 (UTC) (F)     (DEG/KT/KT) (MB)    (FT/S)
N MID LAKE BUOY  0850   28 47  310/ 19/ 23 1023.6R   4/ 5
NORTHPORT PIER   0849   27     310/ 16     1023.0R
KEWAUNEE LAKESHO 0854   26     320/  6/ 10 1023.3R
SHEBOYGAN LAKESH 0900   25     320/  8/ 10 1025.4R
PORT WASHINGTON  0840   22     300/  3/  4 1025.7R
MILWAUKEE LAKESH 0900   24     310/  6/  7   N/A
S MID LAKE BUOY  0850   31 47  350/ 14/ 17 1024.5R   5/ 7
KENOSHA   LAKESH 0900   23     310/  7/ 10 1024.7
$$

TC  - TEMPERATURE IN CELSIUS
VSB - VISIBILITY IN STATUTE MILES
WCI - WIND CHILL INDEX
HX  - HEAT INDEX





USA.gov is the U.S. government's official web portal to all federal, state and local government web resources and services.